TimeCDT,TemperatureF,Dew PointF,Humidity,Sea Level PressureIn,VisibilityMPH,Wind Direction,Wind SpeedMPH,Gust SpeedMPH,PrecipitationIn,Events,Conditions,WindDirDegrees,DateUTC
12:53 AM,14.0,3.9,64,30.51,10.0,NE,8.1,-,N/A,,Clear,40,2014-03-16 05:53:00
1:53 AM,12.9,3.0,65,30.53,10.0,NE,6.9,-,N/A,,Clear,40,2014-03-16 06:53:00
2:53 AM,12.0,1.9,64,30.54,10.0,NE,5.8,-,N/A,,Clear,50,2014-03-16 07:53:00
3:53 AM,10.9,3.0,70,30.53,10.0,NE,5.8,-,N/A,,Clear,50,2014-03-16 08:53:00
4:53 AM,10.0,1.9,70,30.53,10.0,ENE,5.8,-,N/A,,Clear,70,2014-03-16 09:53:00
5:53 AM,10.0,-0.0,64,30.50,10.0,East,9.2,-,N/A,,Clear,90,2014-03-16 10:53:00
6:53 AM,9.0,-0.0,67,30.51,10.0,East,5.8,-,N/A,,Clear,90,2014-03-16 11:53:00
7:53 AM,9.0,-0.0,67,30.53,10.0,East,4.6,-,N/A,,Clear,100,2014-03-16 12:53:00
8:53 AM,10.9,1.0,64,30.52,10.0,ESE,8.1,-,N/A,,Clear,120,2014-03-16 13:53:00
9:53 AM,15.1,3.9,61,30.49,10.0,SSE,11.5,-,N/A,,Clear,150,2014-03-16 14:53:00
10:53 AM,17.1,5.0,59,30.46,10.0,SE,9.2,-,N/A,,Clear,140,2014-03-16 15:53:00
11:53 AM,19.9,7.0,57,30.43,10.0,SSE,11.5,-,N/A,,Clear,160,2014-03-16 16:53:00
12:53 PM,23.0,8.1,53,30.39,10.0,South,12.7,-,N/A,,Clear,170,2014-03-16 17:53:00
1:53 PM,23.0,9.0,55,30.36,10.0,SSW,13.8,-,N/A,,Clear,200,2014-03-16 18:53:00
2:53 PM,24.1,10.0,55,30.34,10.0,South,15.0,-,N/A,,Clear,170,2014-03-16 19:53:00
3:53 PM,25.0,12.0,58,30.28,10.0,South,13.8,-,N/A,,Clear,180,2014-03-16 20:53:00
4:53 PM,25.0,12.9,60,30.24,10.0,South,16.1,20.7,N/A,,Clear,170,2014-03-16 21:53:00
5:53 PM,26.1,12.9,58,30.20,10.0,South,18.4,-,N/A,,Partly Cloudy,180,2014-03-16 22:53:00
6:53 PM,25.0,12.9,60,30.15,10.0,South,19.6,23.0,N/A,,Overcast,180,2014-03-16 23:53:00
7:53 PM,25.0,12.9,60,30.11,10.0,SSE,17.3,23.0,N/A,,Overcast,160,2014-03-17 00:53:00
8:53 PM,24.1,14.0,65,30.03,10.0,SSE,18.4,27.6,N/A,,Overcast,160,2014-03-17 01:53:00
9:53 PM,25.0,15.1,66,29.99,10.0,South,18.4,25.3,N/A,,Overcast,170,2014-03-17 02:53:00
10:53 PM,25.0,16.0,69,29.95,10.0,South,20.7,-,N/A,,Overcast,170,2014-03-17 03:53:00
11:53 PM,26.1,17.1,69,29.89,10.0,South,20.7,27.6,N/A,,Overcast,170,2014-03-17 04:53:00